Item Display Status Humidity-temperature Sensor

Elevation Above Sea Level: 3 m

 

Deployed Sensor

  • Serial Number: 20256986
  • NDBC Property Number: 42280
  • Start Date: 11/19/2018 (13:10:08 Z)
  • End Date: Currently Active
Relative Humidity [%]     6 entries per hour
Showing data from 11/15/2019 (01:00:00 Z) to 11/14/2019 (00:00:01 Z)
Previous Next [ Day | 3-Days | 7-Days ]
First Last
Prev [ Day | 3-Days | 7-Days ] Next
First Last

Start Time:     :
End Time:     :     
Time (in GMT) :00 :50 :40 :30 :20 :10
Previous Next [ Day | 3-Days | 7-Days ]
First Last
Prev [ Day | 3-Days | 7-Days ] Next
First Last


123 => good data
MM => data is determined as missing
-- => data not received/configured
Back to Top Back to Top
11/15/2019 01:00 to 0:10 69.76 70.37 70.13 69.54 69.58 70.64
11/15/2019 00:00 to 23:10 70.62 71.74 70.05 69.99 68.63 69.91
11/14/2019 23:00 to 22:10 70.25 69.13 68.40 68.42 69.91 70.17
11/14/2019 22:00 to 21:10 69.38 70.43 70.52 69.11 69.78 69.15
11/14/2019 21:00 to 20:10 69.99 70.13 70.33 69.72 69.30 68.46
11/14/2019 20:00 to 19:10 69.44 68.85 69.68 69.82 69.91 71.39
11/14/2019 19:00 to 18:10 73.63 72.04 69.44 69.93 70.25 67.77
11/14/2019 18:00 to 17:10 67.26 69.11 69.01 67.91 68.08 66.08
11/14/2019 17:00 to 16:10 67.22 64.56 65.64 65.70 66.06 65.98
11/14/2019 16:00 to 15:10 64.60 67.04 65.52 66.78 67.95 73.30
11/14/2019 15:00 to 14:10 74.42 75.78 77.10 76.82 75.39 74.83
11/14/2019 14:00 to 13:10 74.87 73.73 76.45 77.53 74.97 75.07
11/14/2019 13:00 to 12:10 75.37 73.28 73.69 73.93 72.53 73.34
11/14/2019 12:00 to 11:10 73.34 70.62 71.90 73.48 72.41 70.13
11/14/2019 11:00 to 10:10 69.76 68.04 69.36 71.27 70.80 73.56
11/14/2019 10:00 to 9:10 68.95 68.00 68.32 70.52 73.48 72.87
11/14/2019 09:00 to 8:10 70.90 75.17 77.12 77.22 76.94 73.67
11/14/2019 08:00 to 7:10 75.09 76.35 75.37 78.50 77.57 77.63
11/14/2019 07:00 to 6:10 76.21 75.52 74.09 76.33 76.13 75.46
11/14/2019 06:00 to 5:10 74.91 74.68 76.29 75.52 76.49 78.30
11/14/2019 05:00 to 4:10 77.73 76.53 76.98 76.90 76.65 76.27
11/14/2019 04:00 to 3:10 75.68 76.69 76.55 75.80 74.93 76.69
11/14/2019 03:00 to 2:10 75.62 75.39 73.75 73.63 78.14 76.96
11/14/2019 02:00 to 1:10 75.07 74.60 72.81 75.50 77.81 80.64
11/14/2019 01:00 to 0:10 80.46 82.93 84.26 84.54 82.43 74.89

 

 

 

Air Temperature [°C]     6 entries per hour
Showing data from 7/24/2019 (01:30:00 Z) to 7/23/2019 (00:00:01 Z)
Previous Next [ Day | 3-Days | 7-Days ]
First Last
Prev [ Day | 3-Days | 7-Days ] Next
First Last

Start Time:     :
End Time:     :     
Time (in GMT) :00 :50 :40 :30 :20 :10
Previous Next [ Day | 3-Days | 7-Days ]
First Last
Prev [ Day | 3-Days | 7-Days ] Next
First Last


123 => good data
MM => data is determined as missing
-- => data not received/configured
Back to Top Back to Top
7/24/2019 02:00 to 1:10 -- -- -- 22.82 22.73 23.02
7/24/2019 01:00 to 0:10 22.81 22.69 22.96 22.91 22.90 22.85
7/24/2019 00:00 to 23:10 22.60 23.08 23.06 23.29 23.26 23.25
7/23/2019 23:00 to 22:10 22.73 22.27 23.10 23.27 22.72 23.16
7/23/2019 22:00 to 21:10 23.18 23.27 23.14 23.13 23.00 22.85
7/23/2019 21:00 to 20:10 23.38 23.35 22.78 23.30 23.28 23.16
7/23/2019 20:00 to 19:10 22.89 22.62 23.06 23.17 23.19 22.97
7/23/2019 19:00 to 18:10 23.29 23.36 23.42 23.39 23.22 23.32
7/23/2019 18:00 to 17:10 23.18 23.14 23.18 23.34 23.48 23.46
7/23/2019 17:00 to 16:10 23.50 23.48 23.37 23.28 23.30 23.37
7/23/2019 16:00 to 15:10 23.34 23.32 23.29 23.36 23.27 23.12
7/23/2019 15:00 to 14:10 22.96 22.91 22.79 22.06 22.46 22.51
7/23/2019 14:00 to 13:10 22.61 22.79 22.57 22.27 22.29 22.23
7/23/2019 13:00 to 12:10 22.73 22.28 21.85 22.24 22.86 23.14
7/23/2019 12:00 to 11:10 23.18 23.21 23.20 23.28 23.26 23.23
7/23/2019 11:00 to 10:10 23.22 23.24 23.28 23.27 23.32 23.22
7/23/2019 10:00 to 9:10 23.23 23.37 23.23 23.37 23.26 23.13
7/23/2019 09:00 to 8:10 23.23 23.26 23.17 23.41 23.30 23.35
7/23/2019 08:00 to 7:10 23.22 23.01 23.04 23.08 23.04 23.53
7/23/2019 07:00 to 6:10 23.52 23.40 23.48 23.36 23.44 23.32
7/23/2019 06:00 to 5:10 23.39 23.22 23.22 23.16 23.25 23.26
7/23/2019 05:00 to 4:10 23.40 23.33 23.34 23.38 23.38 23.51
7/23/2019 04:00 to 3:10 23.58 23.56 23.54 23.60 23.39 23.35
7/23/2019 03:00 to 2:10 23.39 23.38 23.42 23.38 23.25 23.29
7/23/2019 02:00 to 1:10 23.20 22.84 23.11 23.00 22.97 23.04
7/23/2019 01:00 to 0:10 23.13 23.18 23.13 23.14 23.31 23.25